logo
Search for airport 
image banner adimage banner adimage banner ad
image banner ad

EHJD - K4-Be (Oil Platform)

Located in , Netherlands

ICAO - , IATA -

Data provided by Airmate  

General information

Coordinates: N53°45'54" E3°11'43"
Elevation is feet MSL.
 
View others Airports in Noord-Holland

Operational data

Special qualification required
Current time UTC:
Current local time:
Weather at : EHJA - J6-A (Oil Platform) ( 18 km )
METAR: EHJA 220225Z AUTO 18007KT 9999 NSC 15/14 Q1008
View NOTAMs / SUP AIP / TFR affecting this airport [VIEW]
Communications frequencies: [VIEW]

Runways:

Airport contact information

Address: Netherlands

Satellite view of EHJD